Regional Weather Roundup
Issued by NWS Northern Indiana

Home | Current Version | Previous Version | Text Only | Print | Product List | Glossary On
Versions: 1 2 3 4 5 6 7 8 9 10 11 12 13 14 15 16 17 18 19 20 21 22 23 24 25 26 27 28 29 30 31 32 33 34 35 36 37 38 39 40 41 42 43 44 45 46 47 48 49 50
000
ASUS43 KIWX 221210
RWRIWX

KIWX WEATHER ROUNDUP
NATIONAL WEATHER SERVICE NORTHERN INDIANA
700 AM EST MON DEC 22 2014

NOTE: "FAIR" INDICATES FEW OR NO CLOUDS BELOW 12,000 FEET WITH NO
SIGNIFICANT WEATHER AND/OR OBSTRUCTIONS TO VISIBILITY.

* THESE STATIONS ARE NOT UNDER NWS QUALITY CONTROL. THEY ALSO MAY NOT
  REPORT WEATHER SUCH AS PRECIPITATION OR FOG.

INZ001>027-221300-
NORTHERN INDIANA

CITY           SKY/WX    TMP DP  RH WIND       PRES   REMARKS
GARY*          CLOUDY    32  25  74 SE12      29.98S WCI  23
VALPARAISO     CLOUDY    29  26  89 E7        29.98S WCI  22
6HR MIN TEMP:  27; 6HR MAX TEMP:  30;

MICHIGAN CITY* CLOUDY    30  23  74 SE6       29.99S WCI  24
LAPORTE*       CLOUDY    31  29  93 SE5       29.99S FOG     WCI  26
6HR MIN TEMP:  29; 6HR MAX TEMP:  31;

KNOX*          CLOUDY    30  24  77 SE9       29.98S WCI  22
6HR MIN TEMP:   9; 6HR MAX TEMP:  81;

SOUTH BEND     MOCLDY    29  25  85 E9        30.01S WCI  20
6HR MIN TEMP:  27; 6HR MAX TEMP:  31;

ELKHART*       PTCLDY    27  21  80 E8        30.02  HAZE    WCI  18
GOSHEN         PTCLDY    27  24  89 SE7       30.02R FOG     WCI  19
6HR MIN TEMP:  27; 6HR MAX TEMP:  29;

MONTICELLO*    CLOUDY    31  28  88 E7        29.96F WCI  24
6HR MIN TEMP:  29; 6HR MAX TEMP:  31;

LOGANSPORT*    CLOUDY    30  27  86 E9        29.98F WCI  22
ROCHESTER*     PTCLDY    32  30  93 E7        30.00F WCI  26
WARSAW*        FAIR      28  25  86 E6        30.01S FOG     WCI  22
ANGOLA*        CLEAR     25  21  86 SE7       30.03S WCI  17
FORT WAYNE     MOCLDY    25  22  88 E7        30.04R FOG     WCI  17
6HR MIN TEMP:  22; 6HR MAX TEMP:  28;

HUNTINGTON*    PTCLDY    26  24  93 E5        30.01F WCI  20
6HR MIN TEMP:  25; 6HR MAX TEMP:  28;

PERU/GRISSOM   CLOUDY    29  29 100 E10       29.98F WCI  20
6HR MIN TEMP:  27; 6HR MAX TEMP:  29;

MARION*        CLOUDY    29  25  86 SE8       30.00F WCI  21
6HR MIN TEMP:  22; 6HR MAX TEMP:  50;


$$
INZ028>050-221300-
CENTRAL INDIANA

CITY           SKY/WX    TMP DP  RH WIND       PRES   REMARKS
LAFAYETTE      CLOUDY    31  27  85 E7        29.95F WCI  24
6HR MIN TEMP:  26; 6HR MAX TEMP:  31;

KOKOMO*        CLOUDY    28  25  86 SE8       29.99S WCI  20
6HR MIN TEMP:  27; 6HR MAX TEMP:  28;

MUNCIE*        CLOUDY    32  27  81 SE3       30.00S
6HR MIN TEMP:  25; 6HR MAX TEMP:  32;

INDIANAPOLIS   CLOUDY    31  27  85 E7        29.96S WCI  24
6HR MIN TEMP:  27; 6HR MAX TEMP:  31;


$$
MIZ043>046-050>051-056>058-064>065-071>073-077>080-221300-
SOUTHWEST LOWER MICHIGAN

CITY           SKY/WX    TMP DP  RH WIND       PRES   REMARKS
BATTLE CREEK   MOCLDY    27  21  78 E7        30.03F WCI  19
6HR MIN TEMP:  27; 6HR MAX TEMP:  29;

BENTON HARBOR  PTCLDY    27  24  89 SE12      30.00S FOG     WCI  17
6HR MIN TEMP:  27; 6HR MAX TEMP:  30;

COLDWATER*     MOCLDY    27  23  85 SE6       30.03F WCI  21
6HR MIN TEMP:  26; 6HR MAX TEMP:  28;

HILLSDALE*     CLEAR     25  23  92 E7        30.03F FOG     WCI  17
6HR MIN TEMP:  24; 6HR MAX TEMP:  27;

HOLLAND        PTCLDY    30  23  75 SE10      30.02S WCI  21
6HR MIN TEMP:  30; 6HR MAX TEMP:  33;

GRAND RAPIDS   MOCLDY    26  22  84 E8        30.04F FOG     WCI  18
6HR MIN TEMP:  26; 6HR MAX TEMP:  30;

KALAMAZOO      PTCLDY    28  22  78 SE6       30.03F HAZE    WCI  22
6HR MIN TEMP:  27; 6HR MAX TEMP:  29;

STURGIS*       PTCLDY    27  25  93 SE9       30.02R FOG     WCI  17
THREE RIVERS*  FAIR      26  23  87 SE5       30.04R FOG     WCI  21
6HR MIN TEMP:  26; 6HR MAX TEMP:  28;


$$
OHZ001>008-015>018-024>025-221300-
NORTHWEST OHIO

CITY           SKY/WX    TMP DP  RH WIND       PRES   REMARKS
WAUSEON*       FAIR      23  21  93 E6        30.07S FOG     WCI  16
DEFIANCE       MOCLDY    25  21  85 E6        30.07S FOG     WCI  18
6HR MIN TEMP:  24; 6HR MAX TEMP:  27;

FINDLAY        CLEAR     25  21  85 E6        30.06R FOG     WCI  18
6HR MIN TEMP:  24; 6HR MAX TEMP:  28;

TOLEDO EXPRESS CLEAR     22  19  89 E3        30.08F FOG
6HR MIN TEMP:  21; 6HR MAX TEMP:  25;

TOLEDO METCALF CLEAR     24  19  81 E7        30.09F HAZE    WCI  16
6HR MIN TEMP:  23; 6HR MAX TEMP:  26;

LIMA           PTCLDY    27  22  81 SE7       30.04R HAZE    WCI  19
6HR MIN TEMP:  26; 6HR MAX TEMP:  29;


$$
AND FOR LAKE MICHIGAN COASTAL AND OPEN LAKE BUOY OBSERVATIONS

STATION/POSITION TEMP    WIND        PRES    VSBY  WAVE
                 AIR SEA DIR/SP/G                  HT/PER
                 (F)     (DEG/KT/KT) (MB)    (MI)  (FT/S)
CALUMET HARBOR    32     150/  6/  9 1013.6S
SAINT JOSEPH      29      CALM  /  8 1016.6R

$$
&&



USA.gov is the U.S. government's official web portal to all federal, state and local government web resources and services.